Valley City, ND

4:36 AM CST on December 15, 2017 (GMT -0600)
Valley City

Weather History for KBAC - January, 2014

Change the Weather History Date:

Tuesday, January 14, 2014

  Actual Average (KJMS) Record (KJMS)
Temperature  
Mean Temperature 10 °F -  
Max Temperature 21 °F 17 °F 44 °F (1942)
Min Temperature 0 °F 0 °F -39 °F (1916)
Degree Days  
Heating Degree Days 54    
Moisture  
Dew Point 10 °F    
Average Humidity 84    
Maximum Humidity 100    
Minimum Humidity 73    
Precipitation  
Precipitation 0.76 in - - ()
Sea Level Pressure  
Sea Level Pressure 30.01 in    
Wind  
Wind Speed 18 mph (NNW)    
Max Wind Speed 33 mph    
Max Gust Speed 44 mph    
Visibility 9 miles    
Events Rain , Snow    
Averages and records for this station are not official NWS values.
T = Trace of Precipitation, MM = Missing Value Source: NWS Daily Summary

Daily Weather History Graph

Daily Weather History Graph

Search for Another Location

Airport or City:

Trip Planner

Search our weather history database for the weather conditions in past years. The results will help you decide how hot, cold, wet, or windy it might be!

Date:

Astronomy

Jan. 14, 2014 Rise Set
Actual Time 8:13 AM CST 5:09 PM CST
Civil Twilight 7:39 AM CST 5:43 PM CST
Nautical Twilight 7:01 AM CST 6:21 PM CST
Astronomical Twilight 6:25 AM CST 6:57 PM CST
Moon 4:17 PM CST (1/14) 6:47 AM CST (1/14)
Length of Visible Light 10h 03m
Length of Day
8h 55m
Waxing Gibbous, 98% of the Moon is Illuminated
Jan 14
Waxing Gibbous
Jan 15
Full
Jan 23
Last Quarter
Jan 30
New
Feb 6
First Quarter

Hourly Weather History & Observations

Time (CST) Temp. Windchill Dew Point Humidity Pressure Visibility Wind Dir Wind Speed Gust Speed Precip Events Conditions
12:15 AM 19.4 °F 9.5 °F 19.4 °F 100% 29.61 in 10.0 mi NNW 8.1 mph - N/A   Overcast
12:35 AM 19.4 °F 6.6 °F 19.4 °F 100% 29.64 in 10.0 mi NNW 12.7 mph - N/A   Overcast
12:55 AM 19.4 °F 6.6 °F 19.4 °F 100% 29.66 in 10.0 mi NW 12.7 mph - N/A   Overcast
1:15 AM 19.4 °F 2.8 °F 19.4 °F 100% 29.67 in 10.0 mi NNW 21.9 mph 26.5 mph N/A Snow Light Snow
1:35 AM 21.2 °F 4.2 °F 19.4 °F 93% 29.68 in 1.8 mi NNW 25.3 mph 35.7 mph 0.02 in Snow Light Snow
1:55 AM 21.2 °F 4.5 °F 19.4 °F 93% 29.70 in 7.0 mi NW 24.2 mph 28.8 mph 0.04 in Snow Light Snow
2:15 AM 21.2 °F 2.7 °F 19.4 °F 93% 29.71 in 5.0 mi NW 31.1 mph 35.7 mph 0.03 in Snow Light Snow
2:35 AM 21.2 °F 2.2 °F 19.4 °F 93% 29.72 in 3.0 mi NW 33.4 mph 42.6 mph 0.08 in Snow Light Snow
2:55 AM 21.2 °F 2.4 °F 15.8 °F 80% 29.74 in 10.0 mi NNW 32.2 mph 43.7 mph 0.15 in Snow Light Snow
3:15 AM 19.4 °F 2.5 °F 15.8 °F 86% 29.76 in 10.0 mi NNW 23.0 mph 34.5 mph 0.02 in Snow Light Snow
3:35 AM 19.4 °F 1.4 °F 15.8 °F 86% 29.77 in 10.0 mi NNW 26.5 mph 40.3 mph 0.05 in Snow Light Snow
3:55 AM 19.4 °F 1.8 °F 15.8 °F 86% 29.77 in 10.0 mi NNW 25.3 mph 39.1 mph 0.09 in Snow Light Snow
4:15 AM 19.4 °F 0.8 °F 15.8 °F 86% 29.78 in 5.0 mi NNW 28.8 mph 33.4 mph 0.04 in Snow Light Snow
4:35 AM 19.4 °F 1.8 °F 17.6 °F 93% 29.80 in 3.0 mi NNW 25.3 mph 33.4 mph 0.10 in Snow Light Snow
4:55 AM 19.4 °F 0.2 °F 15.8 °F 86% 29.81 in 5.0 mi NNW 31.1 mph 39.1 mph 0.17 in Snow Light Snow
5:15 AM 19.4 °F 1.8 °F 15.8 °F 86% 29.82 in 3.0 mi NNW 25.3 mph 36.8 mph 0.03 in Snow Light Snow
5:35 AM 19.4 °F 1.4 °F 15.8 °F 86% 29.83 in 2.5 mi NNW 26.5 mph 36.8 mph 0.08 in Snow Light Snow
5:55 AM 19.4 °F 1.8 °F 14.0 °F 80% 29.84 in 10.0 mi NNW 25.3 mph 36.8 mph 0.10 in Snow Light Snow
6:15 AM 17.6 °F -0.3 °F 14.0 °F 86% 29.85 in 10.0 mi North 24.2 mph 33.4 mph 0.01 in Snow Light Snow
6:35 AM 17.6 °F 0.1 °F 14.0 °F 86% 29.87 in 10.0 mi North 23.0 mph 33.4 mph 0.03 in Snow Light Snow
6:55 AM 17.6 °F 1.3 °F 12.2 °F 79% 29.89 in 10.0 mi North 19.6 mph 29.9 mph 0.04 in Snow Light Snow
7:15 AM 17.6 °F 0.9 °F 12.2 °F 79% 29.91 in 10.0 mi North 20.7 mph 27.6 mph N/A Snow Light Snow
7:35 AM 17.6 °F 0.1 °F 10.4 °F 73% 29.92 in 10.0 mi North 23.0 mph 31.1 mph 0.01 in Snow Light Snow
7:55 AM 15.8 °F -1.5 °F 10.4 °F 79% 29.94 in 10.0 mi North 20.7 mph - 0.01 in Snow Light Snow
8:15 AM 15.8 °F 0.9 °F 12.2 °F 86% 29.95 in 7.0 mi North 15.0 mph - N/A Snow Light Snow
8:35 AM 15.8 °F -0.6 °F 10.4 °F 79% 29.97 in 10.0 mi North 18.4 mph 27.6 mph N/A Snow Light Snow
8:55 AM 15.8 °F -1.1 °F 10.4 °F 79% 29.98 in 10.0 mi North 19.6 mph - N/A Snow Light Snow
9:15 AM 15.8 °F -0.6 °F 10.4 °F 79% 29.99 in 10.0 mi North 18.4 mph 26.5 mph N/A Snow Light Snow
9:35 AM 15.8 °F 1.4 °F 10.4 °F 79% 30.01 in 10.0 mi North 13.8 mph 21.9 mph N/A Snow Light Snow
9:55 AM 15.8 °F 0.9 °F 10.4 °F 79% 30.02 in 10.0 mi North 15.0 mph 21.9 mph N/A Snow Light Snow
10:15 AM 15.8 °F 0.3 °F 10.4 °F 79% 30.03 in 10.0 mi North 16.1 mph 23.0 mph N/A Snow Light Snow
10:35 AM 15.8 °F -0.2 °F 10.4 °F 79% 30.04 in 8.0 mi North 17.3 mph - N/A Snow Light Snow
10:55 AM 15.8 °F 2.1 °F 10.4 °F 79% 30.06 in 10.0 mi North 12.7 mph - N/A   Overcast
11:15 AM 15.8 °F 2.1 °F 10.4 °F 79% 30.07 in 10.0 mi North 12.7 mph - N/A Snow Light Snow
11:35 AM 15.8 °F 1.4 °F 10.4 °F 79% 30.07 in 10.0 mi North 13.8 mph - N/A   Mostly Cloudy
11:55 AM 15.8 °F 2.1 °F 10.4 °F 79% 30.08 in 10.0 mi NNW 12.7 mph - N/A Rain Light Freezing Rain
12:15 PM 15.8 °F 2.1 °F 10.4 °F 79% 30.08 in 9.0 mi North 12.7 mph - N/A Snow Light Snow
12:35 PM 15.8 °F 2.7 °F 12.2 °F 86% 30.09 in 3.0 mi North 11.5 mph - 0.01 in Snow Light Snow
12:55 PM 15.8 °F 2.7 °F 14.0 °F 93% 30.09 in 2.0 mi North 11.5 mph - 0.04 in Snow Light Snow
1:15 PM 15.8 °F -1.5 °F 14.0 °F 93% 30.10 in 1.8 mi NNW 20.7 mph 26.5 mph 0.02 in Snow Light Snow
1:35 PM 15.8 °F 0.3 °F 10.4 °F 79% 30.10 in 9.0 mi North 16.1 mph 27.6 mph 0.03 in Snow Light Snow
1:55 PM 15.8 °F -1.9 °F 10.4 °F 79% 30.10 in 4.0 mi NNW 21.9 mph 29.9 mph 0.04 in Snow Light Snow
2:15 PM 15.8 °F -1.9 °F 10.4 °F 79% 30.11 in 10.0 mi NNW 21.9 mph 26.5 mph N/A Snow Light Snow
2:35 PM 15.8 °F -0.6 °F 8.6 °F 73% 30.13 in 10.0 mi NNW 18.4 mph 24.2 mph N/A Snow Light Snow
2:55 PM 15.8 °F -1.5 °F 8.6 °F 73% 30.13 in 10.0 mi North 20.7 mph 25.3 mph N/A Snow Light Snow
3:15 PM 15.8 °F -0.6 °F 8.6 °F 73% 30.14 in 10.0 mi North 18.4 mph - N/A Snow Light Snow
3:35 PM 15.8 °F 0.9 °F 8.6 °F 73% 30.15 in 10.0 mi North 15.0 mph - N/A Snow Light Snow
3:55 PM 15.8 °F 0.3 °F 8.6 °F 73% 30.15 in 10.0 mi North 16.1 mph 19.6 mph N/A   Overcast
4:15 PM 14.0 °F -2.5 °F 10.4 °F 86% 30.16 in 2.0 mi NNW 17.3 mph - 0.05 in Snow Light Snow
4:35 PM 14.0 °F -2.5 °F 10.4 °F 86% 30.16 in 10.0 mi NNW 17.3 mph - 0.08 in Snow Light Snow
4:55 PM 14.0 °F -2.5 °F 10.4 °F 86% 30.17 in 10.0 mi NW 17.3 mph - 0.08 in Snow Light Snow
5:15 PM 14.0 °F -2.0 °F 8.6 °F 79% 30.17 in 10.0 mi NW 16.1 mph - N/A Snow Light Snow
5:35 PM 14.0 °F -3.0 °F 8.6 °F 79% 30.18 in 10.0 mi NW 18.4 mph - N/A Snow Light Snow
5:55 PM 12.2 °F -4.8 °F 6.8 °F 79% 30.19 in 10.0 mi NW 17.3 mph - N/A   Overcast
6:15 PM 10.4 °F -6.6 °F 6.8 °F 85% 30.18 in 10.0 mi NW 16.1 mph - N/A   Overcast
6:35 PM 10.4 °F -6.0 °F 5.0 °F 79% 30.19 in 10.0 mi NW 15.0 mph - N/A   Overcast
6:55 PM 8.6 °F -6.3 °F 5.0 °F 85% 30.20 in 10.0 mi NW 11.5 mph - N/A   Mostly Cloudy
7:15 PM 6.8 °F -8.6 °F 3.2 °F 85% 30.20 in 10.0 mi NW 11.5 mph - N/A   Overcast
7:35 PM 6.8 °F -7.8 °F 1.4 °F 79% 30.21 in 10.0 mi NNW 10.4 mph - N/A   Overcast
7:55 PM 5.0 °F -10.8 °F 1.4 °F 85% 30.21 in 10.0 mi NW 11.5 mph - N/A   Overcast
8:35 PM 5.0 °F -11.6 °F 1.4 °F 85% 30.21 in 10.0 mi NNW 12.7 mph - N/A   Partly Cloudy
8:55 PM 3.2 °F -12.2 °F -0.4 °F 85% 30.21 in 10.0 mi NW 10.4 mph - N/A   Partly Cloudy
9:15 PM 3.2 °F -13.1 °F -0.4 °F 85% 30.22 in 10.0 mi NNW 11.5 mph - N/A   Scattered Clouds
9:35 PM 3.2 °F -13.9 °F -0.4 °F 85% 30.21 in 10.0 mi NW 12.7 mph - N/A   Partly Cloudy
9:55 PM 1.4 °F -14.5 °F -0.4 °F 92% 30.20 in 10.0 mi NW 10.4 mph - N/A   Clear
10:15 PM 1.4 °F -16.1 °F -0.4 °F 92% 30.20 in 10.0 mi NW 12.7 mph - N/A   Clear
10:35 PM 1.4 °F -16.1 °F -0.4 °F 92% 30.19 in 10.0 mi NNW 12.7 mph - N/A   Clear
10:55 PM -0.4 °F -16.7 °F -2.2 °F 92% 30.19 in 10.0 mi NNW 10.4 mph - N/A   Clear
11:15 PM 1.4 °F -15.3 °F -2.2 °F 85% 30.18 in 10.0 mi NW 11.5 mph - N/A   Clear
11:35 PM -0.4 °F -16.7 °F -4.0 °F 85% 30.17 in 10.0 mi NW 10.4 mph - N/A   Clear
11:55 PM -0.4 °F -16.7 °F -4.0 °F 85% 30.16 in 10.0 mi NNW 10.4 mph - N/A   Clear